Previsão horária em Jutrkow

Hoje, 24 Junho, Quinta-feira

Tempo Temperatura Precipitação Vento Pressão Humidade
00:00 +19°C° 0 mm 2 m/s 749 mmHg 91%
01:00 +19°C° 0 mm 2 m/s 749 mmHg 91%
02:00 +19°C° 0.1 mm 2 m/s 748 mmHg 92%
03:00 +18°C° 0.1 mm 2 m/s 748 mmHg 93%
04:00 +18°C° 0.1 mm 2 m/s 748 mmHg 95%
05:00 +19°C° 1.3 mm 2 m/s 747 mmHg 95%
06:00 +19°C° 1.3 mm 2 m/s 747 mmHg 95%
07:00 +20°C° 1.3 mm 2 m/s 747 mmHg 95%
08:00 +21°C° 1.4 mm 3 m/s 747 mmHg 91%
09:00 +22°C° 1.4 mm 4 m/s 747 mmHg 88%
10:00 +23°C° 1.4 mm 5 m/s 747 mmHg 84%
11:00 +26°C° 0 mm 5 m/s 746 mmHg 78%
12:00 +27°C° 0 mm 4 m/s 746 mmHg 73%
13:00 +28°C° 0 mm 4 m/s 746 mmHg 67%
14:00 +28°C° 0.1 mm 4 m/s 746 mmHg 67%
15:00 +28°C° 0.1 mm 4 m/s 745 mmHg 66%
16:00 +28°C° 0.1 mm 5 m/s 745 mmHg 66%
17:00 +26°C° 0.1 mm 5 m/s 746 mmHg 72%
18:00 +23°C° 0.1 mm 5 m/s 746 mmHg 79%
19:00 +20°C° 0.1 mm 5 m/s 746 mmHg 85%
20:00 +19°C° 0.1 mm 5 m/s 746 mmHg 87%
21:00 +18°C° 0.1 mm 4 m/s 746 mmHg 90%
22:00 +15°C° 0.1 mm 4 m/s 747 mmHg 92%
23:00 +16°C° 0.3 mm 3 m/s 746 mmHg 93%

Amanhã, 25 Junho, Sexta-feira

Tempo Temperatura Precipitação Vento Pressão Humidade
00:00 +16°C° 0.3 mm 3 m/s 746 mmHg 93%
01:00 +16°C° 0.3 mm 3 m/s 746 mmHg 94%
02:00 +16°C° 0.6 mm 3 m/s 746 mmHg 94%
03:00 +15°C° 0.6 mm 4 m/s 746 mmHg 94%
04:00 +15°C° 0.6 mm 4 m/s 746 mmHg 93%
05:00 +15°C° 0.1 mm 4 m/s 747 mmHg 92%
06:00 +15°C° 0.1 mm 4 m/s 747 mmHg 90%
07:00 +15°C° 0.1 mm 4 m/s 747 mmHg 88%
08:00 +17°C° 0 mm 4 m/s 747 mmHg 86%
09:00 +17°C° 0 mm 4 m/s 748 mmHg 85%
10:00 +18°C° 0 mm 4 m/s 748 mmHg 83%
11:00 +19°C° 0.1 mm 4 m/s 748 mmHg 78%
12:00 +20°C° 0.1 mm 3 m/s 748 mmHg 72%
13:00 +21°C° 0.1 mm 3 m/s 748 mmHg 67%
14:00 +21°C° 0 mm 3 m/s 748 mmHg 65%
15:00 +22°C° 0 mm 3 m/s 748 mmHg 62%
16:00 +22°C° 0 mm 3 m/s 748 mmHg 60%
17:00 +21°C° 0 mm 3 m/s 747 mmHg 66%
18:00 +20°C° 0 mm 3 m/s 747 mmHg 72%
19:00 +19°C° 0 mm 3 m/s 747 mmHg 78%
20:00 +18°C° 0 mm 2 m/s 748 mmHg 83%
21:00 +17°C° 0 mm 2 m/s 748 mmHg 87%
22:00 +15°C° 0 mm 1 m/s 749 mmHg 92%
23:00 +15°C° 0 mm 1 m/s 749 mmHg 91%

Depois de amanhã, 26 Junho, Sábado

Tempo Temperatura Precipitação Vento Pressão Humidade
00:00 +15°C° 0 mm 1 m/s 749 mmHg 91%
01:00 +15°C° 0 mm 1 m/s 749 mmHg 91%
02:00 +15°C° 0 mm 1 m/s 749 mmHg 92%
03:00 +14°C° 0 mm 2 m/s 749 mmHg 93%
04:00 +14°C° 0 mm 2 m/s 749 mmHg 94%
05:00 +16°C° 0 mm 2 m/s 749 mmHg 88%
06:00 +18°C° 0 mm 1 m/s 749 mmHg 82%
07:00 +20°C° 0 mm 1 m/s 749 mmHg 76%
08:00 +21°C° 0 mm 1 m/s 749 mmHg 70%
09:00 +21°C° 0 mm 2 m/s 749 mmHg 64%
10:00 +24°C° 0 mm 2 m/s 749 mmHg 58%
11:00 +25°C° 0 mm 1 m/s 749 mmHg 54%
12:00 +25°C° 0 mm 1 m/s 749 mmHg 51%
13:00 +26°C° 0 mm 1 m/s 749 mmHg 48%
14:00 +26°C° 0 mm 1 m/s 749 mmHg 50%
15:00 +25°C° 0 mm 2 m/s 749 mmHg 52%
16:00 +25°C° 0 mm 2 m/s 748 mmHg 54%
17:00 +24°C° 0 mm 2 m/s 748 mmHg 60%
18:00 +23°C° 0 mm 2 m/s 748 mmHg 65%
19:00 +21°C° 0 mm 2 m/s 748 mmHg 70%
20:00 +21°C° 0 mm 2 m/s 749 mmHg 71%
21:00 +20°C° 0 mm 2 m/s 749 mmHg 72%
22:00 +20°C° 0 mm 1 m/s 749 mmHg 73%
23:00 +20°C° 0 mm 1 m/s 749 mmHg 73%

27 Junho, Domingo

Tempo Temperatura Precipitação Vento Pressão Humidade
00:00 +19°C° 0 mm 1 m/s 749 mmHg 74%
01:00 +19°C° 0 mm 1 m/s 749 mmHg 75%
02:00 +19°C° 0 mm 1 m/s 749 mmHg 76%
03:00 +19°C° 0 mm 1 m/s 749 mmHg 77%
04:00 +18°C° 0 mm 1 m/s 749 mmHg 78%
05:00 +20°C° 0 mm 1 m/s 749 mmHg 74%
06:00 +21°C° 0 mm 1 m/s 749 mmHg 71%
07:00 +22°C° 0 mm 1 m/s 749 mmHg 67%
08:00 +23°C° 0 mm 1 m/s 749 mmHg 62%
09:00 +25°C° 0 mm 1 m/s 749 mmHg 57%
10:00 +26°C° 0 mm 2 m/s 749 mmHg 51%
11:00 +26°C° 0 mm 2 m/s 749 mmHg 49%
12:00 +27°C° 0 mm 2 m/s 748 mmHg 47%
13:00 +27°C° 0 mm 2 m/s 748 mmHg 45%
14:00 +27°C° 0 mm 2 m/s 748 mmHg 47%
15:00 +27°C° 0 mm 2 m/s 748 mmHg 48%
16:00 +27°C° 0 mm 2 m/s 748 mmHg 49%
17:00 +26°C° 0 mm 2 m/s 748 mmHg 55%
18:00 +25°C° 0 mm 3 m/s 748 mmHg 61%
19:00 +24°C° 0 mm 3 m/s 748 mmHg 67%
20:00 +22°C° 0 mm 3 m/s 748 mmHg 70%
21:00 +21°C° 0 mm 3 m/s 748 mmHg 72%
22:00 +20°C° 0 mm 3 m/s 748 mmHg 74%
23:00 +19°C° 0 mm 3 m/s 748 mmHg 75%

28 Junho, Segunda-feira

Tempo Temperatura Precipitação Vento Pressão Humidade
00:00 +19°C° 0 mm 3 m/s 748 mmHg 75%
01:00 +19°C° 0 mm 3 m/s 748 mmHg 76%
02:00 +18°C° 0 mm 2 m/s 748 mmHg 76%
03:00 +18°C° 0 mm 2 m/s 748 mmHg 77%
04:00 +18°C° 0 mm 2 m/s 748 mmHg 77%
05:00 +19°C° 0 mm 3 m/s 748 mmHg 73%
06:00 +21°C° 0 mm 3 m/s 748 mmHg 69%
07:00 +24°C° 0 mm 3 m/s 748 mmHg 65%
08:00 +25°C° 0 mm 3 m/s 748 mmHg 59%
09:00 +27°C° 0 mm 4 m/s 748 mmHg 54%
10:00 +28°C° 0 mm 4 m/s 748 mmHg 48%
11:00 +29°C° 0 mm 3 m/s 748 mmHg 46%
12:00 +30°C° 0 mm 3 m/s 747 mmHg 44%
13:00 +31°C° 0 mm 2 m/s 747 mmHg 41%
14:00 +31°C° 0 mm 2 m/s 747 mmHg 41%
15:00 +32°C° 0 mm 2 m/s 747 mmHg 40%
16:00 +32°C° 0 mm 1 m/s 747 mmHg 39%
17:00 +30°C° 0 mm 2 m/s 747 mmHg 47%
18:00 +29°C° 0 mm 2 m/s 746 mmHg 55%
19:00 +27°C° 0 mm 3 m/s 746 mmHg 63%
20:00 +26°C° 0 mm 3 m/s 746 mmHg 66%
21:00 +25°C° 0 mm 3 m/s 746 mmHg 68%
22:00 +24°C° 0 mm 3 m/s 746 mmHg 71%
23:00 +22°C° 0 mm 3 m/s 746 mmHg 72%

29 Junho, Terça-feira

Tempo Temperatura Precipitação Vento Pressão Humidade
00:00 +21°C° 0 mm 3 m/s 746 mmHg 73%
01:00 +21°C° 0 mm 3 m/s 746 mmHg 74%
02:00 +21°C° 0 mm 3 m/s 746 mmHg 73%
03:00 +20°C° 0 mm 3 m/s 746 mmHg 73%
04:00 +20°C° 0 mm 3 m/s 746 mmHg 72%
05:00 +21°C° 0 mm 3 m/s 746 mmHg 70%
06:00 +24°C° 0 mm 3 m/s 746 mmHg 68%
07:00 +25°C° 0 mm 3 m/s 746 mmHg 65%
08:00 +26°C° 0 mm 3 m/s 746 mmHg 63%
09:00 +27°C° 0 mm 3 m/s 746 mmHg 60%
10:00 +29°C° 0 mm 3 m/s 746 mmHg 57%
11:00 +30°C° 0 mm 3 m/s 746 mmHg 52%
12:00 +32°C° 0 mm 4 m/s 746 mmHg 47%
13:00 +34°C° 0 mm 4 m/s 746 mmHg 42%
14:00 +34°C° 0 mm 4 m/s 746 mmHg 42%
15:00 +34°C° 0 mm 4 m/s 745 mmHg 42%
16:00 +34°C° 0 mm 4 m/s 745 mmHg 42%
17:00 +32°C° 0.1 mm 4 m/s 745 mmHg 49%
18:00 +30°C° 0.1 mm 4 m/s 745 mmHg 57%
19:00 +28°C° 0.1 mm 5 m/s 745 mmHg 65%
20:00 +27°C° 0.3 mm 4 m/s 745 mmHg 69%
21:00 +26°C° 0.3 mm 4 m/s 746 mmHg 74%
22:00 +24°C° 0.3 mm 3 m/s 746 mmHg 79%
23:00 +24°C° 0.1 mm 3 m/s 746 mmHg 80%
Mostrar mais

Necessitamos do seu Consentimento

A Meteoprog e os seus Fornecedores de Serviços podem armazenar e aceder a dados pessoais como cookies, identificadores do dispositivo ou outras tecnologias semelhantes existentes no seu dispositivo e processar estes dados para personalizar conteúdos e anúncios, assim como funcionalidades nas redes sociais e análise de tráfego.

  • Armazenar e/ou aceder a informações no seu dispositivo

    Os cookies, identificadores do dispositivo ou outras informações podem ser armazenados ou acedidos no seu dispositivo, para os fins acima indicados.

  • Anúncios e conteúdos personalizados, medição de anúncios e conteúdos, dados sobre o público-alvo e desenvolvimento de produtos

    Os anúncios e os conteúdos podem ser personalizados com base num perfil. Podem ser adicionados dados adicionais para uma maior personalização dos anúncios e dos conteúdos. A eficácia dos anúncios e dos conteúdos pode ser medida. Podem ser obtidas informações sobre o público que visualizou os anúncios e os conteúdos. Estes dados podem ser usados para desenvolver ou melhorar sistemas, softwares ou a experiência do utilizador.

Ao clicar em "Eu concordo”, permitirá o uso de cookies, identificadores do dispositivo e web beacons mencionados ou outras tecnologias semelhantes. As configurações do navegador do seu dispositivo podem ser alteradas.

Para certos fins, podem ser invocados interesses legítimos ao invés de consentimento. Pode ler mais informação sobre este assunto na nossa Política de Privacidade e Cookies.